Location: Newark
(7.0858°N, 171.3717°E)
Time: 16:56:07
(UTC+00:00)

Hubble Space Telescope - Pass Details

Date: 27 September 2021
Orbit: 535 x 538 km, 28.5° (Epoch: 17 October)

Event Time Altitude Azimuth Distance (km) Brightness Sun altitude
Rises 08:01:40 0° 275° (W) 2,664 5.7 -24.1°
Reaches altitude 10° 08:04:26 10° 256° (WSW) 1,776 4.4 -24.8°
Maximum altitude 08:07:22 19° 211° (SSW) 1,311 3.0 -25.5°
Enters shadow 08:08:10 18° 195° (SSW) 1,351 2.9 -25.7°
